Canadian, TX

5:45 AM CDT on May 30, 2017 (GMT -0500)
Hemphill County

Weather History for KHHF - November, 2013

Change the Weather History Date:

Sunday, November 3, 2013

  Actual Average (KPPA) Record (KPPA)
Temperature  
Mean Temperature 58 °F -  
Max Temperature 70 °F 58 °F 81 °F (1988)
Min Temperature 45 °F 34 °F 8 °F (1991)
Degree Days  
Heating Degree Days 8    
Growing Degree Days 8 (Base 50)    
Moisture  
Dew Point 31 °F    
Average Humidity 40    
Maximum Humidity 56    
Minimum Humidity 25    
Precipitation  
Precipitation 0.00 in - - ()
Sea Level Pressure  
Sea Level Pressure 29.89 in    
Wind  
Wind Speed 20 mph (South)    
Max Wind Speed 34 mph    
Max Gust Speed 44 mph    
Visibility 10 miles    
Events      
Averages and records for this station are not official NWS values.
T = Trace of Precipitation, MM = Missing Value Source: NWS Daily Summary

Daily Weather History Graph

Daily Weather History Graph

Search for Another Location

Airport or City:

Trip Planner

Search our weather history database for the weather conditions in past years. The results will help you decide how hot, cold, wet, or windy it might be!

Date:

Astronomy

Nov. 03, 2013 Rise Set
Actual Time 7:06 AM CST 5:43 PM CST
Civil Twilight 6:39 AM CST 6:10 PM CST
Nautical Twilight 6:09 AM CST 6:40 PM CST
Astronomical Twilight 5:39 AM CST 7:10 PM CST
Moon 7:11 AM CST (11/3) 6:01 PM CST (11/3)
Length of Visible Light 11h 30m
Length of Day
10h 37m
New Moon, 0% of the Moon is Illuminated
Nov 3
New Moon
Nov 9
First Quarter
Nov 17
Full
Nov 25
Last Quarter
Dec 2
New

Hourly Weather History & Observations

Time (CST) Temp. Windchill Dew Point Humidity Pressure Visibility Wind Dir Wind Speed Gust Speed Precip Events Conditions
12:15 AM 50.7 °F - 28.0 °F 42% 30.09 in 10.0 mi South 13.8 mph 18.4 mph N/A   Clear
12:35 AM 50.5 °F - 28.2 °F 42% 30.08 in 10.0 mi South 13.8 mph - N/A   Clear
12:55 AM 50.2 °F - 28.8 °F 44% 30.07 in 10.0 mi South 11.5 mph 16.1 mph N/A   Clear
1:15 AM 50.0 °F - 29.1 °F 45% 30.07 in 10.0 mi South 11.5 mph 20.7 mph N/A   Clear
1:35 AM 49.1 °F - 29.3 °F 46% 30.07 in 10.0 mi South 12.7 mph 18.4 mph N/A   Clear
1:55 AM 50.0 °F - 29.5 °F 45% 30.06 in 10.0 mi South 17.3 mph 23.0 mph N/A   Clear
1:15 AM 50.0 °F - 29.3 °F 45% 30.05 in 10.0 mi South 16.1 mph 26.5 mph N/A   Clear
1:35 AM 49.3 °F - 29.3 °F 46% 30.05 in 10.0 mi South 18.4 mph 28.8 mph N/A   Clear
1:55 AM 49.1 °F - 29.1 °F 46% 30.04 in 10.0 mi South 20.7 mph 29.9 mph N/A   Clear
2:15 AM 48.7 °F - 29.1 °F 47% 30.04 in 10.0 mi South 20.7 mph 27.6 mph N/A   Clear
2:35 AM 48.4 °F - 29.1 °F 47% 30.03 in 10.0 mi South 17.3 mph 26.5 mph N/A   Clear
2:55 AM 48.2 °F - 28.9 °F 47% 30.02 in 10.0 mi South 19.6 mph 25.3 mph N/A   Clear
3:15 AM 48.2 °F - 28.8 °F 47% 30.01 in 10.0 mi South 21.9 mph 28.8 mph N/A   Clear
3:35 AM 47.8 °F - 28.9 °F 48% 30.00 in 10.0 mi South 21.9 mph 34.5 mph N/A   Clear
3:55 AM 48.2 °F - 29.1 °F 48% 30.00 in 10.0 mi South 20.7 mph 27.6 mph N/A   Clear
4:15 AM 48.2 °F - 29.1 °F 48% 29.99 in 10.0 mi SSW 18.4 mph 28.8 mph N/A   Clear
4:35 AM 48.6 °F - 28.9 °F 47% 29.98 in 10.0 mi SSW 19.6 mph 27.6 mph N/A   Clear
4:55 AM 48.4 °F - 29.1 °F 47% 29.98 in 10.0 mi SSW 20.7 mph 28.8 mph N/A   Clear
5:15 AM 48.2 °F - 29.3 °F 48% 29.98 in 10.0 mi SSW 20.7 mph 31.1 mph N/A   Clear
5:35 AM 48.2 °F - 29.3 °F 48% 29.97 in 10.0 mi SSW 25.3 mph 32.2 mph N/A   Clear
5:55 AM 48.6 °F - 29.3 °F 47% 29.97 in 10.0 mi South 24.2 mph 28.8 mph N/A   Clear
6:15 AM 48.2 °F - 29.3 °F 48% 29.96 in 10.0 mi South 24.2 mph 29.9 mph N/A   Clear
6:35 AM 47.3 °F - 29.5 °F 50% 29.96 in 10.0 mi South 23.0 mph 26.5 mph N/A   Clear
6:55 AM 46.6 °F - 30.0 °F 53% 29.96 in 10.0 mi South 16.1 mph - N/A   Clear
7:15 AM 46.0 °F 39.6 °F 30.0 °F 54% 29.96 in 10.0 mi South 15.0 mph 24.2 mph N/A   Clear
7:35 AM 45.7 °F 39.1 °F 30.2 °F 55% 29.97 in 10.0 mi South 15.0 mph 20.7 mph N/A   Clear
7:55 AM 47.1 °F - 30.7 °F 53% 29.96 in 10.0 mi South 16.1 mph 25.3 mph N/A   Clear
8:15 AM 47.3 °F - 30.9 °F 53% 29.96 in 10.0 mi South 20.7 mph 26.5 mph N/A   Clear
8:35 AM 48.2 °F - 30.9 °F 51% 29.96 in 10.0 mi South 18.4 mph 27.6 mph N/A   Clear
8:55 AM 50.0 °F - 31.3 °F 49% 29.95 in 10.0 mi South 18.4 mph 28.8 mph N/A   Clear
9:15 AM 52.2 °F - 31.6 °F 46% 29.95 in 10.0 mi SSW 20.7 mph 27.6 mph N/A   Clear
9:35 AM 55.0 °F - 31.5 °F 41% 29.95 in 10.0 mi SSW 19.6 mph 26.5 mph N/A   Clear
9:55 AM 56.3 °F - 31.3 °F 39% 29.95 in 10.0 mi SSW 19.6 mph 26.5 mph N/A   Clear
10:15 AM 59.5 °F - 31.5 °F 35% 29.93 in 10.0 mi SSW 24.2 mph 39.1 mph N/A   Clear
10:35 AM 59.9 °F - 31.5 °F 34% 29.90 in 10.0 mi South 31.1 mph 36.8 mph N/A   Clear
10:55 AM 60.1 °F - 31.5 °F 34% 29.89 in 10.0 mi South 24.2 mph 33.4 mph N/A   Clear
11:15 AM 64.2 °F - 31.3 °F 29% 29.88 in 10.0 mi SSW 29.9 mph 39.1 mph N/A   Clear
11:35 AM 63.5 °F - 30.7 °F 29% 29.88 in 10.0 mi SSW 26.5 mph 39.1 mph N/A   Clear
11:55 AM 63.7 °F - 31.1 °F 29% 29.87 in 10.0 mi SSW 27.6 mph 41.4 mph N/A   Clear
12:15 PM 63.7 °F - 31.8 °F 30% 29.86 in 10.0 mi South 27.6 mph 35.7 mph N/A   Clear
12:35 PM 65.8 °F - 32.2 °F 29% 29.84 in 10.0 mi South 26.5 mph 36.8 mph N/A   Clear
12:55 PM 68.4 °F - 32.0 °F 26% 29.81 in 10.0 mi South 26.5 mph 36.8 mph N/A   Clear
1:15 PM 69.6 °F - 32.0 °F 25% 29.81 in 10.0 mi South 27.6 mph 38.0 mph N/A   Clear
1:35 PM 70.0 °F - 32.0 °F 25% 29.80 in 10.0 mi South 26.5 mph 34.5 mph N/A   Clear
1:55 PM 69.6 °F - 32.2 °F 25% 29.79 in 10.0 mi South 28.8 mph 36.8 mph N/A   Clear
2:15 PM 70.0 °F - 32.0 °F 25% 29.78 in 10.0 mi South 28.8 mph 38.0 mph N/A   Clear
2:35 PM 67.8 °F - 32.0 °F 26% 29.77 in 10.0 mi South 28.8 mph 36.8 mph N/A   Clear
2:55 PM 70.0 °F - 32.0 °F 25% 29.77 in 10.0 mi South 28.8 mph 39.1 mph N/A   Clear
3:15 PM 70.0 °F - 32.0 °F 25% 29.75 in 10.0 mi South 29.9 mph 38.0 mph N/A   Clear
3:35 PM 69.8 °F - 32.0 °F 25% 29.75 in 10.0 mi South 32.2 mph 39.1 mph N/A   Clear
3:55 PM 68.7 °F - 31.6 °F 25% 29.74 in 10.0 mi South 34.5 mph 43.7 mph N/A   Clear
4:15 PM 67.5 °F - 32.0 °F 27% 29.73 in 10.0 mi South 29.9 mph 41.4 mph N/A   Clear
4:35 PM 67.1 °F - 32.0 °F 27% 29.74 in 10.0 mi South 32.2 mph 40.3 mph N/A   Clear
4:55 PM 65.1 °F - 31.6 °F 29% 29.75 in 10.0 mi South 26.5 mph 33.4 mph N/A   Clear
5:15 PM 64.4 °F - 31.8 °F 30% 29.74 in 10.0 mi South 31.1 mph 38.0 mph N/A   Clear
5:35 PM 63.1 °F - 32.0 °F 31% 29.74 in 10.0 mi South 27.6 mph 38.0 mph N/A   Clear
5:55 PM 61.7 °F - 31.1 °F 32% 29.74 in 10.0 mi South 26.5 mph 38.0 mph N/A   Clear
6:15 PM 60.8 °F - 31.3 °F 33% 29.74 in 10.0 mi South 25.3 mph 35.7 mph N/A   Clear
6:35 PM 60.6 °F - 32.0 °F 34% 29.74 in 10.0 mi South 26.5 mph 34.5 mph N/A   Scattered Clouds
6:55 PM 59.9 °F - 32.0 °F 35% 29.75 in 10.0 mi South 24.2 mph 35.7 mph N/A   Scattered Clouds
7:15 PM 59.2 °F - 32.2 °F 36% 29.76 in 10.0 mi South 27.6 mph 38.0 mph N/A   Scattered Clouds
7:35 PM 58.5 °F - 32.9 °F 38% 29.77 in 10.0 mi South 26.5 mph 38.0 mph N/A   Clear
7:55 PM 57.9 °F - 33.8 °F 40% 29.77 in 10.0 mi South 23.0 mph 35.7 mph N/A   Clear
8:15 PM 57.6 °F - 34.2 °F 41% 29.77 in 10.0 mi South 21.9 mph 34.5 mph N/A   Clear
8:35 PM 57.2 °F - 34.7 °F 43% 29.76 in 10.0 mi South 21.9 mph 33.4 mph N/A   Clear
8:55 PM 57.2 °F - 34.7 °F 43% 29.77 in 10.0 mi South 24.2 mph 34.5 mph N/A   Clear
9:15 PM 56.5 °F - 34.9 °F 44% 29.77 in 10.0 mi South 23.0 mph 31.1 mph N/A   Clear
9:35 PM 56.3 °F - 35.2 °F 45% 29.77 in 10.0 mi South 26.5 mph 33.4 mph N/A   Clear
9:55 PM 55.9 °F - 35.6 °F 46% 29.77 in 10.0 mi South 21.9 mph 32.2 mph N/A   Clear
10:15 PM 55.4 °F - 36.0 °F 48% 29.77 in 10.0 mi SSW 24.2 mph 32.2 mph N/A   Clear
10:35 PM 55.6 °F - 37.9 °F 52% 29.77 in 10.0 mi SSW 24.2 mph 33.4 mph N/A   Clear
10:55 PM 55.8 °F - 40.5 °F 56% 29.77 in 10.0 mi South 26.5 mph 38.0 mph N/A   Clear